Location: Puketoi
(40.5833°S, 176.0167°E)
Time: 14:07:26
(UTC+00:00)

Lacrosse 5 rocket - Pass Details

Date: 08 February 2023
Orbit: 454 x 613 km, 57.0° (Epoch: 22 March)

Event Time Altitude Azimuth Distance (km) Brightness Sun altitude
Exits shadow 13:00:14 16° 214° (SW) 1,646 4.1 -34.0°
Maximum altitude 13:00:59 16° 203° (SSW) 1,621 4.2 -34.0°
Drops below altitude 10° 13:03:54 10° 163° (SSE) 2,011 5.0 -33.9°
Sets 13:07:01 0° 142° (SE) 2,922 5.8 -33.8°
